Tracking 19176 objects as of 26-May-2018
HD Live streaming from Space Station
objects crossing your sky now

FENGYUN 1C DEB

Track FENGYUN 1C DEB now!
10-day predictions


NORAD ID: 30311
Int'l Code: 1999-025ZY
Perigee: 862.3 km
Apogee: 1,107.9 km
Inclination: 98.9 °
Period: 104.6 minutes
Semi major axis: 7356 km
RCS: 0.043 m2 (small)
Launch date: May 10, 1999
Source: People's Republic of China (PRC)
Launch site: Taiyaun Space Center, China (TSC)

Note: This is SATELLITE DEBRIS
aabbcc
Your satellite tracking list
Your tracking list is empty




NASA's NSSDC Master Catalog

Two Line Element Set (TLE):
1 30311U 99025ZY  18145.79656397  .00000071  00000-0  10533-3 0  9997
2 30311  98.9273 343.7889 0166962 320.1320 160.5129 13.76033204570264
Source of the keplerian elements: AFSPC